sat.trackr.live / text

‹ back to catalog

STARLINK-30116

NORAD 57465 · 2023-107J

PAYLOAD ACTIVE UNKNOWN

§ Identity

Operator
Country
US
Launch date
2023-07-28
Launch site
AFETR
Launch vehicle
Mass (kg)
RCS (m²)

Purposes: comms

External: N2YO · Heavens-Above · Gunter

§ Orbital elements

Epoch: 2026-05-25T01:09:11.524320Z

Period
94.27 min
Inclination
42.9974°
Eccentricity
0.0000470
Mean motion
15.27571320 rev/d
Perigee alt
482.8 km
Apogee alt
483.4 km
Semi-major
6,861.2 km
B*
9.3329e-5
RAAN
265.0080°
Arg perigee
3.8757°
Mean anomaly
356.2098°
Rev number
15,682

§ Raw data

STARLINK-301161 57465U 23107J   26145.04805005  .00002307  00000+0  93329-4 0  99912 57465  42.9974 265.0080 0000470   3.8757 356.2098 15.27571320156824

JSON: /api/v1/satellites/57465 · /tle

For live sub-satellite position, see the globe view (requires WebGL).

§ Visibility from observer

Set your observer location to see the next 7 days of passes ≥ 10°. The values pass through the URL so the page stays shareable.

No JS? Fill the form by hand. The geolocation button needs JavaScript.